Stations météo

réclame
Mon MeteoGroup
Hoogeveen aws, Pays-Bas (6279): Température de l'air & dewpoint: 11.08.2018 13:00:00 - 17.08.2018 13:00:00 (CEST)Hoogeveen aws, Pays-Bas (6279): Température de l'air 5cm: 11.08.2018 13:00:00 - 17.08.2018 13:00:00 (CEST)Hoogeveen aws, Pays-Bas (6279): Vitesse du vent & gusts: 11.08.2018 13:00:00 - 17.08.2018 13:00:00 (CEST)Hoogeveen aws, Pays-Bas (6279): Direction du vent: 11.08.2018 13:00:00 - 17.08.2018 13:00:00 (CEST)Hoogeveen aws, Pays-Bas (6279): reduced air pressure: 11.08.2018 13:00:00 - 17.08.2018 13:00:00 (CEST)Hoogeveen aws, Pays-Bas (6279): visibility: 11.08.2018 13:00:00 - 17.08.2018 13:00:00 (CEST)Hoogeveen aws, Pays-Bas (6279): Quantités de précipitations: 11.08.2018 13:00:00 - 17.08.2018 13:00:00 (CEST)
Date & Time tt [°C] td [°C] tt 5cm [°C] ff [km/h] ff [knt] fx [km/h] fx [knt] dd ppp [hPa] vv [km] rr [mm]
17.08.2018 13:00:00 20,3 11,7 22,4 7 4 18 10 WNW 1018,4 35 0,0
17.08.2018 12:00:00 19,2 13,4 20,3 11 6 14 8 NW 1018,3 30 0,0
17.08.2018 11:00:00 17,1 15,1 17,8 7 4 11 6 WNW 1018,4 18 0,0
17.08.2018 10:00:00 16,1 15,4 16,6 7 4 11 6 W 1017,7 9 0,0
17.08.2018 09:00:00 15,8 15,4 16,0 7 4 11 6 SW 1017,1 8 0,0
17.08.2018 08:00:00 15,2 14,9 15,4 4 2 11 6 S 1016,5 6 0,0
17.08.2018 07:00:00 14,9 14,7 15,0 4 2 7 4 S 1016,2 8 0,1
17.08.2018 06:00:00 14,7 14,4 14,7 7 4 11 6 S 1015,7 7 2,7
17.08.2018 05:00:00 14,7 14,2 14,6 11 6 14 8 SSE 1016,1 8 1,6
17.08.2018 04:00:00 14,5 14,1 14,3 7 4 11 6 S 1015,9 15 0,0
17.08.2018 03:00:00 13,8 13,5 13,5 7 4 11 6 SSE 1015,2 10 0,0
17.08.2018 02:00:00 13,1 12,9 12,3 4 2 7 4 WNW 1015,1 13 0,0
17.08.2018 01:00:00 12,5 12,2 11,3 0 0 4 2 N 1015,1 8 0,0
17.08.2018 00:00:00 12,8 12,8 11,6 0 0 4 2 N 1015,0 10 0,0
16.08.2018 23:00:00 13,7 13,4 12,1 4 2 7 4 SE 1015,0 15 0,0
16.08.2018 22:00:00 15,0 14,0 13,6 0 0 11 6 N 1015,3 48 0,0
16.08.2018 21:00:00 15,7 14,2 15,3 7 4 29 16 NNW 1015,2 50 0,0
16.08.2018 20:00:00 19,1 15,5 19,4 18 10 29 16 WNW 1014,8 35 0,0
16.08.2018 19:00:00 21,5 14,7 21,6 14 8 25 14 WSW 1014,6 41 0,0
16.08.2018 18:00:00 22,2 14,8 22,6 14 8 36 19 WSW 1014,8 41 0,0
16.08.2018 17:00:00 21,9 15,3 22,3 18 10 29 16 WSW 1014,7 39 0,0
16.08.2018 16:00:00 22,5 15,3 23,2 18 10 36 19 SW 1014,4 32 0,0
16.08.2018 15:00:00 23,2 14,8 24,3 22 12 36 19 SW 1014,5 41 0,0
16.08.2018 14:00:00 23,3 14,7 23,5 18 10 36 19 SSW 1014,5 35 0,0
16.08.2018 13:00:00 21,9 14,5 22,9 18 10 36 19 WSW 1014,9 40 0,0
16.08.2018 12:00:00 21,5 14,4 22,0 22 12 36 19 SW 1015,1 36 0,0
16.08.2018 11:00:00 20,6 14,3 22,2 22 12 36 19 SSW 1015,3 30 0,0
16.08.2018 10:00:00 19,1 15,0 20,1 22 12 32 18 SSW 1015,4 20 0,0
16.08.2018 09:00:00 17,8 14,9 18,1 18 10 29 16 SSW 1015,6 15 0,0
16.08.2018 08:00:00 16,1 14,4 16,0 18 10 25 14 S 1015,9 12 0,0
16.08.2018 07:00:00 14,8 13,9 14,2 11 6 18 10 S 1016,0 9 0,0
16.08.2018 06:00:00 14,7 13,8 14,1 11 6 14 8 S 1016,0 9 0,0
16.08.2018 05:00:00 15,2 14,1 14,5 11 6 18 10 S 1016,1 10 0,0
16.08.2018 04:00:00 15,4 14,4 14,7 11 6 14 8 S 1016,4 8 0,0
16.08.2018 03:00:00 16,3 15,0 15,4 11 6 18 10 S 1016,8 9 0,0
16.08.2018 02:00:00 16,0 14,7 15,3 11 6 14 8 S 1017,2 9 0,0
16.08.2018 01:00:00 16,0 14,5 14,4 11 6 11 6 S 1017,5 9 0,0
16.08.2018 00:00:00 16,0 14,6 14,3 7 4 11 6 S 1017,5 11 0,0
15.08.2018 23:00:00 16,4 14,9 14,8 7 4 7 4 S 1017,8 1,3 0,0
15.08.2018 22:00:00 17,7 15,4 16,5 7 4 14 8 SW 1018,0 18 0,0
15.08.2018 21:00:00 19,3 16,1 18,9 7 4 22 12 WSW 1017,8 16 0,0
15.08.2018 20:00:00 20,9 16,2 20,7 14 8 29 16 SSW 1017,5 15 0,0
15.08.2018 19:00:00 21,4 17,0 21,7 18 10 25 14 SSW 1017,7 13 0,0
15.08.2018 18:00:00 21,4 16,9 21,6 14 8 32 18 SW 1017,9 16 0,0
15.08.2018 17:00:00 21,8 17,3 22,1 14 8 25 14 SSW 1018,0 12 0,0
15.08.2018 16:00:00 21,8 17,0 21,8 14 8 25 14 SW 1018,0 13 0,0
15.08.2018 15:00:00 22,6 17,1 23,0 14 8 29 16 SSW 1018,0 18 0,0
15.08.2018 14:00:00 22,8 17,0 23,6 14 8 29 16 SSW 1017,9 15 0,0
15.08.2018 13:00:00 22,1 16,6 23,0 14 8 22 12 SSW 1017,9 17 0,0
15.08.2018 12:00:00 22,0 17,5 23,4 11 6 22 12 SW 1017,9 15 0,0
15.08.2018 11:00:00 20,6 16,9 21,9 14 8 22 12 SW 1018,0 13 0,0
15.08.2018 10:00:00 18,9 16,6 19,2 14 8 22 12 SW 1017,8 11 0,0
15.08.2018 09:00:00 17,6 16,0 17,5 14 8 18 10 SSW 1017,5 10 0,0
15.08.2018 08:00:00 16,9 15,7 16,8 11 6 14 8 SSW 1017,3 9 0,0
15.08.2018 07:00:00 16,3 15,3 16,2 7 4 14 8 S 1016,7 8 0,0
15.08.2018 06:00:00 16,2 15,3 16,0 7 4 11 6 SSW 1016,7 9 0,0
15.08.2018 05:00:00 16,3 15,4 16,1 7 4 11 6 SW 1016,7 9 0,0
15.08.2018 04:00:00 15,9 15,2 15,7 7 4 18 10 SSW 1016,9 7 0,0
15.08.2018 03:00:00 16,7 15,4 16,5 11 6 14 8 SW 1017,0 11 0,0
15.08.2018 02:00:00 16,8 15,6 16,6 7 4 14 8 SW 1016,9 14 0,0
15.08.2018 01:00:00 17,2 15,5 16,9 7 4 14 8 SW 1017,1 22 0,0
15.08.2018 00:00:00 17,0 15,1 16,7 7 4 11 6 SSW 1016,8 43 0,0
14.08.2018 23:00:00 16,9 14,7 16,4 7 4 11 6 WSW 1016,7 45 0,0
14.08.2018 22:00:00 17,1 14,0 16,8 7 4 14 8 W 1016,6 49 0,0
14.08.2018 21:00:00 17,5 12,7 16,8 11 6 18 10 W 1016,3 49 0,0
14.08.2018 20:00:00 19,3 11,3 19,4 11 6 29 16 W 1015,7 47 0,0
14.08.2018 19:00:00 20,5 13,3 21,7 18 10 32 18 W 1015,3 40 0,0
14.08.2018 18:00:00 20,2 13,2 21,1 22 12 36 19 W 1015,2 32 0,0
14.08.2018 17:00:00 20,4 13,8 20,9 22 12 40 21 WNW 1014,7 33 0,0
14.08.2018 16:00:00 20,3 13,4 21,0 25 14 43 23 WNW 1014,3 32 0,0
14.08.2018 15:00:00 20,7 13,1 21,3 22 12 43 23 WNW 1013,7 36 0,0
14.08.2018 14:00:00 20,8 13,0 21,9 22 12 43 23 W 1013,0 34 0,0
14.08.2018 13:00:00 20,9 14,5 20,5 25 14 40 21 W 1012,2 27 0,0
14.08.2018 12:00:00 19,3 15,7 19,0 14 8 36 19 WNW 1011,9 31 0,0
14.08.2018 11:00:00 18,2 16,4 18,8 18 10 32 18 W 1011,2 22 0,3
14.08.2018 10:00:00 17,3 16,1 17,7 18 10 36 19 W 1010,5 11 0,0
14.08.2018 09:00:00 17,9 15,9 18,4 22 12 29 16 W 1009,7 26 0,0
14.08.2018 08:00:00 17,1 16,3 17,0 14 8 25 14 W 1009,1 22 0,0
14.08.2018 07:00:00 16,9 16,6 16,8 11 6 22 12 W 1008,2 12 0,6
14.08.2018 06:00:00 16,2 16,0 15,9 7 4 18 10 SW 1007,7 13 0,0
14.08.2018 05:00:00 16,6 16,2 16,6 11 6 25 14 WSW 1007,6 6 0,2
14.08.2018 04:00:00 16,8 16,5 16,8 14 8 18 10 SW 1007,5 6 1,9
14.08.2018 03:00:00 16,5 16,2 16,4 11 6 22 12 WSW 1007,3 11 1,2
14.08.2018 02:00:00 16,4 16,1 16,4 11 6 22 12 SW 1007,1 4,8 0,7
14.08.2018 01:00:00 16,5 16,2 16,2 11 6 14 8 SW 1007,0 6 0,1
14.08.2018 00:00:00 16,8 16,3 16,6 11 6 18 10 SW 1006,8 9 0,1
13.08.2018 23:00:00 16,3 15,8 16,1 7 4 14 8 SSW 1006,5 8 0,0
13.08.2018 22:00:00 17,0 16,2 16,9 11 6 18 10 WSW 1006,4 12 0,0
13.08.2018 21:00:00 17,3 16,8 17,3 11 6 22 12 SW 1006,1 9 0,0
13.08.2018 20:00:00 17,7 17,0 17,8 14 8 22 12 SW 1005,5 9 0,0
13.08.2018 19:00:00 17,8 17,3 18,1 11 6 22 12 SSW 1005,2 6 0,6
13.08.2018 18:00:00 18,2 17,7 18,5 7 4 14 8 SW 1004,9 5 1,9
13.08.2018 17:00:00 18,0 17,4 18,2 11 6 22 12 WSW 1005,3 6 1,1
13.08.2018 16:00:00 19,0 17,5 19,2 14 8 22 12 SW 1005,0 14 0,6
13.08.2018 15:00:00 18,9 17,2 18,9 14 8 32 18 SW 1005,0 9 0,9
13.08.2018 14:00:00 23,0 15,4 24,0 18 10 32 18 SSW 1004,5 27 0,0
13.08.2018 13:00:00 23,3 16,5 24,2 22 12 29 16 S 1004,8 26 0,0
13.08.2018 12:00:00 22,3 15,3 23,8 18 10 25 14 S 1005,2 34 0,0
13.08.2018 11:00:00 21,4 15,8 22,3 14 8 22 12 S 1005,1 28 0,0
13.08.2018 10:00:00 18,9 13,8 19,1 11 6 14 8 SSE 1005,3 31 0,0
13.08.2018 09:00:00 17,5 14,8 17,3 7 4 7 4 E 1005,2 24 0,1
13.08.2018 08:00:00 17,4 15,4 17,1 0 0 4 2 N 1005,5 28 0,0
13.08.2018 07:00:00 17,2 14,8 16,4 4 2 7 4 SE 1005,5 37 0,0
13.08.2018 06:00:00 16,8 15,6 16,5 4 2 7 4 ESE 1005,8 20 0,0
13.08.2018 05:00:00 17,0 14,9 16,5 7 4 7 4 ENE 1006,0 34 0,0
13.08.2018 04:00:00 17,0 15,7 16,7 4 2 7 4 N 1006,6 27 0,0
13.08.2018 03:00:00 17,7 15,0 16,7 4 2 7 4 ESE 1007,2 40 0,0
13.08.2018 02:00:00 18,0 14,8 16,6 7 4 7 4 SE 1007,8 42 0,0
13.08.2018 01:00:00 17,1 15,9 16,5 4 2 7 4 E 1008,3 49 0,0
13.08.2018 00:00:00 17,2 15,9 16,6 4 2 7 4 E 1008,9 44 0,0
12.08.2018 23:00:00 18,5 16,3 17,4 4 2 4 2 E 1009,4 49 0,0
12.08.2018 22:00:00 19,2 16,8 18,5 4 2 7 4 ENE 1009,9 47 0,0
12.08.2018 21:00:00 20,7 15,0 19,5 4 2 7 4 SE 1010,1 48 0,0
12.08.2018 20:00:00 23,0 13,9 22,6 4 2 14 8 S 1010,3 47 0,0
12.08.2018 19:00:00 24,3 13,4 24,5 11 6 22 12 SW 1010,9 40 0,0
12.08.2018 18:00:00 24,7 12,7 25,4 14 8 25 14 SW 1011,3 46 0,0
12.08.2018 17:00:00 25,5 12,8 25,8 18 10 32 18 SSW 1011,9 46 0,0
12.08.2018 16:00:00 25,4 13,2 26,3 18 10 40 21 WSW 1012,8 42 0,0
12.08.2018 15:00:00 24,4 12,9 26,2 22 12 36 19 SSW 1013,4 38 0,0
12.08.2018 14:00:00 23,4 12,6 25,0 22 12 36 19 SSW 1014,3 40 0,0
12.08.2018 13:00:00 21,4 11,9 22,6 22 12 29 16 SSW 1014,8 44 0,0
12.08.2018 12:00:00 20,8 12,0 22,0 22 12 29 16 S 1015,3 41 0,0
12.08.2018 11:00:00 19,1 11,4 19,5 14 8 22 12 S 1015,6 40 0,0
12.08.2018 10:00:00 16,9 10,9 17,1 11 6 18 10 S 1016,1 39 0,0
12.08.2018 09:00:00 14,9 10,8 14,6 11 6 18 10 S 1016,6 32 0,0
12.08.2018 08:00:00 13,1 10,3 13,0 7 4 14 8 S 1017,1 33 0,0
12.08.2018 07:00:00 12,0 10,3 11,5 4 2 7 4 SE 1017,4 24 0,0
12.08.2018 06:00:00 9,9 9,8 9,4 4 2 7 4 SE 1017,9 11 0,0
12.08.2018 05:00:00 8,8 8,6 7,3 4 2 7 4 SSE 1018,4 9 0,0
12.08.2018 04:00:00 8,9 8,7 7,5 4 2 4 2 SSE 1019,1 6 0,0
12.08.2018 03:00:00 9,1 8,6 8,3 4 2 4 2 S 1019,5 14 0,0
12.08.2018 02:00:00 8,9 8,6 7,5 4 2 4 2 ESE 1019,9 12 0,0
12.08.2018 01:00:00 9,1 8,8 7,7 0 0 4 2 N 1020,4 14 0,0
12.08.2018 00:00:00 10,3 9,8 8,4 0 0 4 2 N 1020,8 32 0,0
11.08.2018 23:00:00 11,7 9,7 10,1 4 2 7 4 WSW 1021,3 49 0,0
11.08.2018 22:00:00 13,8 9,7 12,6 7 4 14 8 W 1021,6 29 0,0
11.08.2018 21:00:00 15,7 9,6 15,1 11 6 25 14 W 1021,7 48 0,0
11.08.2018 20:00:00 17,7 11,0 17,6 14 8 29 16 W 1021,4 43 0,0
11.08.2018 19:00:00 18,3 10,6 18,8 18 10 36 19 W 1021,6 39 0,0
11.08.2018 18:00:00 19,7 9,8 21,1 25 14 36 19 W 1021,5 35 0,0
11.08.2018 17:00:00 19,1 10,7 20,1 25 14 40 21 W 1021,3 28 0,0
11.08.2018 16:00:00 19,0 10,6 20,1 25 14 43 23 W 1021,3 21 0,0
11.08.2018 15:00:00 19,2 10,6 21,0 22 12 43 23 W 1021,1 38 0,0
11.08.2018 14:00:00 18,7 10,5 19,7 18 10 47 25 W 1021,0 44 0,0
11.08.2018 13:00:00 18,7 10,5 18,1 22 12 40 21 W 1020,8 42 0,0

tt = Température de l'air
td = dewpoint
tt 5cm = Température de l'air 5cm
ff = Vitesse du vent
fx = gusts
dd = Direction du vent
ppp = reduced air pressure
vv = visibility
rr = Quantités de précipitations

stations d'obs. à proximité